User: anonymous   Login
Location: Theydon Bois
(51.6750°N, 0.1050°E)
Time: 03:56:29
(UTC+01:00)
Language:

Cosmos 1680 Rocket - Orbit

View from above orbital plane
View from above orbital plane
View from above satellite
View from above satellite

Ground track
Ground track

The orbit data is extracted from the following two-line orbital elements,

1 16012U 85079B   17294.47445298 -.00000039 +00000-0 -42919-5 0  9999
2 16012 074.0582 263.3285 0014025 140.0319 220.1869 14.36252297681720
Epoch (UTC): 21 October 2017 11:23:12
Eccentricity: 0.0014025
inclination: 74.0582°
perigee height: 761 km
apogee height: 781 km
right ascension of ascending node: 263.3285°
argument of perigee: 140.0319°
revolutions per day: 14.36252297
mean anomaly at epoch: 220.1869°
orbit number at epoch: 68172

The dashed part of the orbit path shows where the satellite is in the earth's shadow,  

DLR